Weather History for Whiteman AFB, MO

Change the Weather History Date:

Wednesday, November 28, 2012

  Actual Average Record
Temperature  
Mean Temperature 38 °F -  
Max Temperature 51 °F 48 °F 71 °F (1998)
Min Temperature 24 °F 33 °F 23 °F (2013)
Degree Days  
Heating Degree Days 28    
Moisture  
Dew Point 26 °F    
Average Humidity 66    
Maximum Humidity 87    
Minimum Humidity 43    
Precipitation  
Precipitation 0.00 in - - ()
Sea Level Pressure  
Sea Level Pressure 30.35 in    
Wind  
Wind Speed 6 mph (South)    
Max Wind Speed 14 mph    
Max Gust Speed -    
Visibility 10 miles    
Events      
Averages and records for this station are not official NWS values.
T = Trace of Precipitation, MM = Missing Value Source: NWS Daily Summary

Daily Weather History Graph

Daily Weather History Graph

Search for Another Location

Airport:

Trip Planner

Search our weather history database for the weather conditions in past years. The results will help you decide how hot, cold, wet, or windy it might be!

Date:

Astronomy

Nov. 28, 2012 Rise Set
Actual Time 7:10 AM CST 4:53 PM CST
Civil Twilight 6:41 AM CST 5:22 PM CST
Nautical Twilight 6:08 AM CST 5:55 PM CST
Astronomical Twilight 5:36 AM CST 6:27 PM CST
Moon 5:09 PM CST (11/28) 7:08 AM CST (11/28)
Length of Visible Light 10h 41m
Length of Day
9h 42m
Full, 100% of the Moon is Illuminated
Nov 28
Full
Dec 6
Last Quarter
Dec 13
New
Dec 19
First Quarter
Dec 28
Full

Hourly Weather History & Observations

Time (CST) Temp. Windchill Dew Point Humidity Pressure Visibility Wind Dir Wind Speed Gust Speed Precip Events Conditions
12:55 AM 28.0 °F 21.7 °F 20.3 °F 73% 30.36 in 10.0 mi SSW 5.8 mph - N/A   Clear
1:55 AM 26.4 °F 18.9 °F 20.1 °F 77% 30.37 in 10.0 mi SSW 6.9 mph - N/A   Clear
2:55 AM 27.3 °F 20.9 °F 20.7 °F 76% 30.38 in 10.0 mi SW 5.8 mph - N/A   Clear
3:55 AM 26.4 °F 19.8 °F 20.5 °F 78% 30.38 in 10.0 mi SW 5.8 mph - N/A   Clear
4:55 AM 26.8 °F 19.3 °F 20.7 °F 78% 30.38 in 10.0 mi WSW 6.9 mph - N/A   Clear
5:55 AM 28.8 °F - 20.8 °F 72% 30.40 in 10.0 mi Calm Calm - N/A   Clear
6:55 AM 24.3 °F 18.4 °F 19.8 °F 83% 30.41 in 10.0 mi South 4.6 mph - N/A   Clear
7:55 AM 24.4 °F 16.5 °F 21.0 °F 87% 30.43 in 10.0 mi SSW 6.9 mph - N/A   Clear
8:55 AM 31.3 °F - 25.0 °F 77% 30.44 in 10.0 mi Calm Calm - N/A   Clear
9:55 AM 38.5 °F - 24.8 °F 58% 30.45 in 10.0 mi Calm Calm - N/A   Clear
10:55 AM 42.3 °F - 26.2 °F 53% 30.45 in 10.0 mi Calm Calm - N/A   Clear
11:55 AM 46.8 °F - 28.8 °F 50% 30.41 in 10.0 mi Variable 4.6 mph - N/A   Clear
12:55 PM 49.8 °F - 29.8 °F 46% 30.38 in 10.0 mi South 6.9 mph - N/A   Clear
1:55 PM 51.6 °F - 29.5 °F 43% 30.35 in 10.0 mi SSW 13.8 mph - N/A   Clear
2:55 PM 51.1 °F - 29.7 °F 44% 30.33 in 10.0 mi South 11.5 mph - N/A   Clear
3:55 PM 50.0 °F - 30.9 °F 48% 30.32 in 10.0 mi South 10.4 mph - N/A   Clear
4:55 PM 44.2 °F 41.0 °F 30.4 °F 58% 30.31 in 10.0 mi SSW 5.8 mph - N/A   Clear
5:55 PM 41.4 °F 39.4 °F 29.5 °F 63% 30.30 in 10.0 mi SE 3.5 mph - N/A   Clear
6:55 PM 39.6 °F 35.4 °F 28.9 °F 66% 30.30 in 10.0 mi SSE 5.8 mph - N/A   Clear
7:55 PM 38.3 °F 33.2 °F 29.3 °F 70% 30.28 in 10.0 mi SSE 6.9 mph - N/A   Clear
8:55 PM 37.8 °F 35.3 °F 28.9 °F 71% 30.27 in 10.0 mi SSE 3.5 mph - N/A   Clear
9:55 PM 37.6 °F 32.3 °F 29.3 °F 72% 30.25 in 10.0 mi South 6.9 mph - N/A   Clear
10:55 PM 37.9 °F 32.7 °F 29.7 °F 72% 30.24 in 10.0 mi South 6.9 mph - N/A   Clear
11:55 PM 36.9 °F 30.7 °F 30.2 °F 77% 30.22 in 10.0 mi South 8.1 mph - N/A   Clear